Location: Bottenau
(48.5138°N, 8.0462°E)
Time: 16:29:46
(UTC+00:00)

Cosmos 1869 - Pass Details

Date: 18 April 2021
Orbit: 518 x 563 km, 82.5° (Epoch: 06 May)

Event Time Altitude Azimuth Distance (km) Brightness Sun altitude
Exits shadow 21:18:38 70° 2° (N) 584 3.4 -23.9°
Drops below altitude 10° 21:22:11 10° 9° (N) 1,809 6.5 -24.3°
Sets 21:24:20 0° 10° (N) 2,698 7.5 -24.5°
